When you browse on this site, cookies collect data to enhance your experience and personalize the content and advertising you see.
Visit our Privacy Policy to learn more. By continuing to use the site, you agree to this use of cookies and data.
  • In Sweden
  • List of Countries
  • For 7 days
  • Water Temperature
  • Weather Map
  • Weather Widgets
  • user-avatar
    Login

    Hourly Weather Lesniki

    Today, 26 February, Wednesday

    Time Temperature Precipitation Wind Pressure Humidity
    00:00 +3°C° 0.3 mm 5 mps 733 mmHg 94%
    01:00 +3°C° 0.3 mm 5 mps 732 mmHg 94%
    02:00 +4°C° 0.3 mm 4 mps 732 mmHg 95%
    03:00 +4°C° 0.4 mm 4 mps 732 mmHg 93%
    04:00 +4°C° 0.4 mm 3 mps 731 mmHg 92%
    05:00 +5°C° 0.4 mm 2 mps 731 mmHg 90%
    06:00 +4°C° 0 mm 2 mps 731 mmHg 90%
    07:00 +4°C° 0 mm 2 mps 731 mmHg 90%
    08:00 +3°C° 0 mm 2 mps 731 mmHg 90%
    09:00 +4°C° 0 mm 2 mps 731 mmHg 83%
    10:00 +5°C° 0 mm 2 mps 731 mmHg 76%
    11:00 +7°C° 0 mm 1 mps 731 mmHg 70%
    12:00 +7°C° 0.1 mm 2 mps 731 mmHg 69%
    13:00 +8°C° 0.1 mm 2 mps 731 mmHg 69%
    14:00 +8°C° 0.1 mm 3 mps 730 mmHg 68%
    15:00 +7°C° 0.6 mm 2 mps 730 mmHg 75%
    16:00 +6°C° 0.6 mm 2 mps 730 mmHg 82%
    17:00 +7°C° 0.6 mm 1 mps 729 mmHg 88%
    18:00 +6°C° 0 mm 1 mps 730 mmHg 89%
    19:00 +6°C° 0 mm 1 mps 730 mmHg 91%
    20:00 +6°C° 0 mm 1 mps 730 mmHg 92%
    21:00 +5°C° 0 mm 1 mps 730 mmHg 92%
    22:00 +5°C° 0 mm 1 mps 730 mmHg 92%
    23:00 +4°C° 0 mm 2 mps 730 mmHg 92%

    Tomorrow, 27 February, Thursday

    Time Temperature Precipitation Wind Pressure Humidity
    00:00 +4°C° 0 mm 2 mps 731 mmHg 91%
    01:00 +3°C° 0 mm 2 mps 731 mmHg 89%
    02:00 +2°C° 0 mm 3 mps 731 mmHg 88%
    03:00 +2°C° 0 mm 3 mps 731 mmHg 88%
    04:00 0°C° 0 mm 4 mps 731 mmHg 89%
    05:00 0°C° 0 mm 4 mps 731 mmHg 89%
    06:00 0°C° 0 mm 4 mps 732 mmHg 90%
    07:00 -1°C° 0 mm 4 mps 732 mmHg 90%
    08:00 -1°C° 0 mm 4 mps 733 mmHg 91%
    09:00 0°C° 0 mm 5 mps 733 mmHg 84%
    10:00 +1°C° 0 mm 5 mps 733 mmHg 77%
    11:00 +1°C° 0 mm 5 mps 734 mmHg 70%
    12:00 +2°C° 0 mm 6 mps 734 mmHg 67%
    13:00 +2°C° 0 mm 6 mps 734 mmHg 65%
    14:00 +2°C° 0 mm 6 mps 734 mmHg 62%
    15:00 +2°C° 0.1 mm 6 mps 735 mmHg 63%
    16:00 +2°C° 0.1 mm 6 mps 735 mmHg 64%
    17:00 +1°C° 0.1 mm 6 mps 735 mmHg 66%
    18:00 0°C° 0 mm 5 mps 735 mmHg 68%
    19:00 0°C° 0 mm 4 mps 736 mmHg 71%
    20:00 -1°C° 0 mm 4 mps 736 mmHg 73%
    21:00 -1°C° 0 mm 3 mps 736 mmHg 75%
    22:00 -1°C° 0 mm 3 mps 736 mmHg 77%
    23:00 -2°C° 0 mm 3 mps 736 mmHg 79%

    Day after tomorrow, 28 February, Friday

    Time Temperature Precipitation Wind Pressure Humidity
    00:00 -2°C° 0 mm 3 mps 736 mmHg 79%
    01:00 -2°C° 0 mm 2 mps 736 mmHg 80%
    02:00 -2°C° 0 mm 2 mps 736 mmHg 80%
    03:00 -2°C° 0 mm 2 mps 736 mmHg 80%
    04:00 -2°C° 0 mm 2 mps 736 mmHg 81%
    05:00 -2°C° 0 mm 2 mps 735 mmHg 81%
    06:00 -2°C° 0 mm 2 mps 735 mmHg 80%
    07:00 -1°C° 0 mm 3 mps 735 mmHg 79%
    08:00 -1°C° 0 mm 3 mps 735 mmHg 78%
    09:00 0°C° 0 mm 3 mps 735 mmHg 72%
    10:00 +1°C° 0 mm 3 mps 735 mmHg 67%
    11:00 +2°C° 0 mm 3 mps 735 mmHg 62%
    12:00 +2°C° 0 mm 3 mps 735 mmHg 62%
    13:00 +4°C° 0 mm 2 mps 736 mmHg 62%
    14:00 +4°C° 0 mm 2 mps 736 mmHg 62%
    15:00 +4°C° 0.3 mm 1 mps 736 mmHg 67%
    16:00 +4°C° 0.3 mm 1 mps 736 mmHg 72%
    17:00 +3°C° 0.3 mm 1 mps 737 mmHg 77%
    18:00 +2°C° 0.1 mm 2 mps 737 mmHg 78%
    19:00 +2°C° 0.1 mm 2 mps 738 mmHg 78%
    20:00 +1°C° 0.1 mm 2 mps 739 mmHg 79%
    21:00 +1°C° 0 mm 2 mps 739 mmHg 80%
    22:00 0°C° 0 mm 3 mps 740 mmHg 80%
    23:00 -1°C° 0 mm 3 mps 740 mmHg 81%

    29 February, Saturday

    Time Temperature Precipitation Wind Pressure Humidity
    00:00 -1°C° 0 mm 3 mps 741 mmHg 84%
    01:00 -1°C° 0 mm 3 mps 741 mmHg 86%
    02:00 -2°C° 0 mm 4 mps 741 mmHg 89%
    03:00 -2°C° 0 mm 4 mps 741 mmHg 90%
    04:00 -2°C° 0 mm 4 mps 742 mmHg 91%
    05:00 -3°C° 0 mm 4 mps 742 mmHg 93%
    06:00 -2°C° 0 mm 4 mps 742 mmHg 91%
    07:00 -2°C° 0 mm 5 mps 742 mmHg 90%
    08:00 -3°C° 0 mm 6 mps 742 mmHg 88%
    09:00 -1°C° 0 mm 5 mps 742 mmHg 84%
    10:00 -1°C° 0 mm 5 mps 742 mmHg 79%
    11:00 0°C° 0 mm 5 mps 743 mmHg 75%
    12:00 0°C° 0 mm 5 mps 743 mmHg 74%
    13:00 0°C° 0 mm 5 mps 743 mmHg 74%
    14:00 0°C° 0 mm 5 mps 743 mmHg 73%
    15:00 0°C° 0 mm 5 mps 743 mmHg 73%
    16:00 0°C° 0 mm 4 mps 743 mmHg 72%
    17:00 0°C° 0 mm 4 mps 742 mmHg 72%
    18:00 +1°C° 0 mm 3 mps 742 mmHg 76%
    19:00 0°C° 0 mm 3 mps 742 mmHg 80%
    20:00 -1°C° 0 mm 2 mps 742 mmHg 85%
    21:00 -1°C° 0 mm 3 mps 742 mmHg 85%
    22:00 -1°C° 0 mm 3 mps 742 mmHg 85%
    23:00 -2°C° 0 mm 4 mps 741 mmHg 85%

    1 March, Sunday

    Time Temperature Precipitation Wind Pressure Humidity
    00:00 -2°C° 0 mm 4 mps 741 mmHg 84%
    01:00 -1°C° 0 mm 5 mps 740 mmHg 83%
    02:00 -1°C° 0 mm 5 mps 740 mmHg 82%
    03:00 -1°C° 0 mm 5 mps 739 mmHg 81%
    04:00 0°C° 0 mm 5 mps 739 mmHg 80%
    05:00 -1°C° 0 mm 6 mps 738 mmHg 79%
    06:00 -1°C° 0 mm 6 mps 738 mmHg 78%
    07:00 -1°C° 0 mm 6 mps 738 mmHg 77%
    08:00 -1°C° 0 mm 6 mps 737 mmHg 75%
    09:00 +1°C° 0 mm 6 mps 737 mmHg 75%
    10:00 +2°C° 0 mm 6 mps 737 mmHg 75%
    11:00 +3°C° 0 mm 5 mps 737 mmHg 75%
    12:00 +3°C° 0.6 mm 5 mps 737 mmHg 81%
    13:00 +3°C° 0.6 mm 4 mps 737 mmHg 86%
    14:00 +3°C° 0.6 mm 4 mps 737 mmHg 92%
    15:00 +3°C° 1.2 mm 4 mps 737 mmHg 93%
    16:00 +3°C° 1.2 mm 3 mps 737 mmHg 95%
    17:00 +3°C° 1.2 mm 3 mps 737 mmHg 97%
    18:00 +2°C° 0.1 mm 3 mps 737 mmHg 97%
    19:00 +2°C° 0.1 mm 3 mps 737 mmHg 97%
    20:00 +2°C° 0.1 mm 3 mps 737 mmHg 97%
    21:00 +2°C° 0 mm 3 mps 737 mmHg 96%
    22:00 +2°C° 0 mm 3 mps 737 mmHg 95%
    23:00 +3°C° 0 mm 2 mps 737 mmHg 94%

    2 March, Monday

    Time Temperature Precipitation Wind Pressure Humidity
    00:00 +3°C° 0 mm 2 mps 737 mmHg 93%
    01:00 +3°C° 0 mm 2 mps 737 mmHg 92%
    02:00 +3°C° 0 mm 2 mps 737 mmHg 92%
    03:00 +2°C° 0 mm 3 mps 737 mmHg 92%
    04:00 +1°C° 0 mm 3 mps 737 mmHg 92%
    05:00 +1°C° 0 mm 3 mps 737 mmHg 92%
    06:00 +1°C° 0 mm 3 mps 737 mmHg 93%
    07:00 +1°C° 0 mm 3 mps 737 mmHg 93%
    08:00 0°C° 0 mm 3 mps 737 mmHg 94%
    09:00 +2°C° 0 mm 3 mps 737 mmHg 88%
    10:00 +4°C° 0 mm 4 mps 737 mmHg 82%
    11:00 +5°C° 0 mm 4 mps 737 mmHg 77%
    12:00 +6°C° 0 mm 4 mps 737 mmHg 72%
    13:00 +7°C° 0 mm 5 mps 737 mmHg 68%
    14:00 +8°C° 0 mm 5 mps 736 mmHg 63%
    15:00 +8°C° 0 mm 5 mps 736 mmHg 65%
    16:00 +7°C° 0 mm 5 mps 736 mmHg 67%
    17:00 +7°C° 0 mm 5 mps 736 mmHg 69%
    18:00 +6°C° 0 mm 4 mps 736 mmHg 74%
    19:00 +5°C° 0 mm 4 mps 736 mmHg 79%
    20:00 +4°C° 0 mm 4 mps 736 mmHg 84%
    21:00 +4°C° 0 mm 4 mps 737 mmHg 85%
    22:00 +4°C° 0 mm 4 mps 737 mmHg 87%
    23:00 +4°C° 0 mm 4 mps 737 mmHg 88%
    Show more